weather.gov     
National Weather Service

Regional Weather Roundup
NWS Homepage
This page is being discontinued on March 12, 2014.
The same data is available at this site. Please update your bookmarks.
Thank you, and we apologize for the inconvenience.
Please send an email to SR-SRH.Webmaster@noaa.gov with any concerns.


Current Version
Previous Version:    01  02  03  04  05  06  07  08  09  10  11  12  13  14  15  16  17  18  19  20  21  22  23  24  25  26  27  28  29  30  
   31  32  33  34  35  36  37  38  39  40  41  42  43  44  45  46  47  48  49  50  51  52  53  
[Printable]
422
ASCA42 TJSJ 241411
RWRPR
PUERTO RICO/U.S. VIRGIN ISLANDS HOURLY WEATHER ROUNDUP
NATIONAL WEATHER SERVICE SAN JUAN PR
1000 AM AST THU APR 24 2014

PRZ001-004-241500-
PUERTO RICO

CITY           SKY/WX    TMP DP  RH WIND       PRES   REMARKS
SAN JUAN LMM   MOSUNNY   84  72  65 NW7       30.03R
MAYAGUEZ       MOSUNNY   84  70  61 E6        30.01S
AGUADILLA      MOSUNNY   84  72  65 NE7       30.04R
CEIBA          PTSUNNY   84  73  70 VRB7      30.06R HX  91
$$

PRZ006-007-241500-
U.S. VIRGIN ISLANDS

CITY           SKY/WX    TMP DP  RH WIND       PRES   REMARKS
CHARLOTTE AMA  MOSUNNY   82  75  78 SE10      30.03R
CHRISTIANSTED  MOSUNNY   84  73  70 SE9       30.04R HX  91
$$

HOURLY WEATHER ROUNDUP FOR THE NEWS MEDIA

CITY           SKY/WX    TMP DP  RH WIND       PRES   REMARKS
MIAMI          SUNNY     76  64  66 S5        30.02R
ORLANDO        SUNNY     75  64  68 NE5       30.02R
NEW YORK       SUNNY     51  12  21 NW25G36   29.92S
NEWARK         SUNNY     51  13  21 NW26G38   29.93S
CHICAGO        CLOUDY    50  36  58 SE15      29.97F
HARTFORD       SUNNY     48  15  26 NW17G35   29.68R
BOSTON         MOSUNNY   47  19  33 NW25G36   29.68S
DALLAS         CLOUDY    70  61  73 S23G31    29.78F
PHILADELPHIA   SUNNY     49  13  23 NW17G28   30.06R




U.S. Dept. of Commerce
NOAA National Weather Service
1325 East West Highway
Silver Spring, MD 20910
E-mail: w-nws.webmaster@noaa.gov
Page last modified: May 16, 2007
NATIONAL WEATHER SERVICE: for Safety, for Work, for Fun - FOR LIFE